Location: Canet
(43.3261°N, 5.3723°E)
Time: 19:32:15
(UTC+00:00)

CZ-4C R/B - Pass Details

Date: 24 January 2021
Orbit: 616 x 1385 km, 63.4° (Epoch: 08 March)

Event Time Altitude Azimuth Distance (km) Brightness Sun altitude
Rises 17:34:01 0° 286° (WNW) 3,249 6.3 -10.0°
Reaches altitude 10° 17:37:29 10° 311° (NW) 2,468 5.1 -10.6°
Maximum altitude 17:40:37 15° 344° (NNW) 2,283 4.5 -11.1°
Drops below altitude 10° 17:44:04 10° 17° (NNE) 2,762 4.6 -11.8°
Enters shadow 17:46:31 - 32° (NNE) 3,375 4.9 -12.2°
